STARLINK-34852, 66135

Orbit data source: Space-Track

STARLINK-34852, 66135 is a payload satellite owned by SpaceX/Seattle (US) in LEO that was launched on Wed, 22 Oct 2025 UTC via an FALCON 9 launch vehicle from the Air Force Western Test Range (AFWTR). Payload-class satellites include a variety of spacecraft equipped with specific instruments for various scientific and technological missions. These include communications satellites like Starlink; space stations such as the ISS; scientific satellites like the Hubble; Earth observation satellites from companies like Planet Labs, Umbra, and HawkEye 360; GPS; miniature CubeSats for education and research; and military/defense satellites.

Loading next visibility...
Identifier
66135, 2025-237X
Orbit
LEO
Country
Flag of USUS
Related business
Manufacturer
SpaceX/Seattle
Mission
Operational Commercial Communications
Bus & Motor
STARLINK V2MO, Unknown motor
Mass
575 kg wet, ~530 kg dry
Launch date (UTC)
2025-10-22 (4 months ago)
Launch vehicle
FALCON 9
Launch site
Air Force Western Test Range (AFWTR)
Object type
Payload
Rocket body
Debris
Shape & HBR
Box + 2 Pan, 17.7 m
Radar Cross Section
36.964 m²

Expand to show TLE details & history
Last TLE update: 19 hours ago

TLE from 19 hours ago
0 STARLINK-34852
1 66135U 25237X   26061.40702637  .00009772  00000-0  34194-3 0  9993
2 66135  53.1591  73.5850 0001221  63.4481 296.6645 15.30170165 21456
Epoch: 2026-03-02T09:46Z
TLE epoch observation values (Epoch: 2026-03-02T09:46:07.078Z)
Latitude
Longitude
126.85462°
Altitude
475.828 km
Speed
7.629 km/s
True Right ascension
04h 54m 20s
True Declination
0° 00' 00"
Sunlit
Object was in daylight at epoch
Visualization orbit readout
Latitude
Unknown
Longitude
Unknown
Altitude
Unknown
Speed
Unknown
Apparent Right ascension
Unknown
Apparent Declination
Unknown
Sunlit
N/A
Visualization observer readout
Local Sidereal Time
08:58:18
Azimuth
Unknown
Elevation
Unknown
Doppler factor
Unknown
Orbital elements
Apogee altitude
476.398 km
Perigee altitude
474.724 km
Semi-major axis
6,853.698 km
Eccentricity
0.00012
Inclination
53.1591°
RAAN
73.585°
Arg. of periapsis
63.4481°
True anomaly
296.652°
Mean anomaly
296.6645°
Eccentric anomaly
296.65825°
Mean motion
3.82521 °/min
Orbital period
94.11 mins
BSTAR
0.00034194
Loading maneuver chart data...
Computing Atmospheric mass density...
Loading historical data...
Loading historical data...
Loading historical data...
Loading historical data...
Loading historical data...
Loading historical data...
Loading historical data...

Documentation

Showing up to 5 results
|